Weather in AshagyAgdzhakend / Shaumyanovsk

Azerbaijan     40°25′14″N   46°34′14″E
temp.,
°C
wind,
m/s
gust,
m/s
humid.,
%
clouds,
%
prec.,
mm/h
press.,
hPa
HPBL,
m
23 october, sat
sat2301:00+9wsw11710 0.0 102310
04:00+8wsw22660 0.0 102210
07:00+8wsw22570 0.0 102110
10:00+12ne21490 0.0 1021234
13:00+15ne31460 0.0 1020555
16:00+16nne21430 0.0 1018559
19:00+12s11570 0.0 101911
22:00+11sw22560 0.0 101911
24 october, sun
sun2401:00+10wsw32500 0.0 101914
04:00+10wsw33440 0.0 101814
07:00+9sw22320 0.0 101812
10:00+14e22280 0.0 1018269
13:00+16ne32310 0.0 1017689
16:00+16ene22330 0.0 1016836
19:00+12s22495 0.0 101611
22:00+11wsw22525 0.0 101611
25 october, mon
mon2501:00+10wsw32490 0.0 101616
04:00+10wsw434411 0.0 101528
07:00+9wsw33425 0.0 101626
10:00+13nnw2234100 0.0 1016319
13:00+12nnw4545100 0.0 1018548
16:00+12nnw5557100 0.0 1019778
19:00+9nw3368100 0.0 1021339
22:00+7nnw3465100 0.0 1024484
26 october, tue
tue2601:00+6n2264100 0.0 1024418
04:00+4se1390100 1.3 1026344
07:00+5ssw228679 0.9 102781
10:00+6ne227893 0.9 1028638
13:00+7ne237295 0.3 1028831
16:00+8nne225365 0.4 10271190
19:00+6sse2270100 0.0 102965
22:00+5sse127462 0.0 103043
27 october, wed
wed2701:00+5se117785 0.0 103177
04:00+4n118782 0.0 1031143
07:00+3nw129359 0.0 1032111
10:00+5nne218276 0.0 1032442
13:00+6ene227894 0.0 1031612
16:00+6ene217495 0.0 1029542
19:00+6ene117594 0.0 1030404
22:00+5nne117942 0.0 1029195